[[{"header":{"parameterUnit":"m.s-1","parameterCategory":1,"la1":30.2992,"la2":30.254,"lo1":-89.0895,"lo2":-89.0443,"dy":0.0025,"dx":0.0025,"nx":19,"ny":19,"refTime":"2026-03-16T21:00:00:Z","depth":0,"parameterNumber":2,"parameterNumberName":"U-component_of_WINDS"},"data":[0,0,0,-2.8239,-2.8243,-2.8417,-2.8417,-2.8636,-2.8638,0,0,0,0,0,0,0,0,0,0,0,-2.8186,-2.8188,-2.8239,-2.8243,-2.8417,-2.8417,-2.8636,-2.8638,0,0,0,0,0,0,0,0,0,0,0,-2.8186,-2.8187,-2.8189,-2.8244,-2.8416,-2.8417,-2.8635,-2.8505,0,0,0,0,0,0,0,0,0,0,-2.8337,-2.8287,-2.8187,-2.8189,-2.8245,-2.8416,-2.8417,-2.8499,-2.8513,-2.8556,0,-2.8595,0,-2.862,-2.8653,-2.8653,0,0,0,-2.8244,-2.8275,-2.8323,-2.8189,-2.8246,-2.8416,-2.8338,-2.8507,-2.8523,-2.8575,-2.8598,-2.8606,-2.8623,-2.8654,-2.8655,-2.89,-2.8901,0,0,-2.8234,-2.8217,-2.8312,-2.8334,-2.8308,-2.8333,-2.8344,-2.8517,-2.854,-2.8599,-2.8611,-2.8627,-2.8655,-2.8657,-2.8899,-2.89,0,0,0,-2.8206,-2.821,-2.8254,-2.8325,-2.8356,-2.8338,-2.835,-2.8533,-2.8548,-2.8614,-2.863,-2.8657,-2.8659,-2.8898,-2.8899,-2.8937,0,0,0,-2.82,-2.8194,-2.825,-2.8241,-2.8353,-2.8447,-2.8362,-2.8536,-2.8556,-2.8629,-2.8657,-2.8661,-2.8897,-2.8899,-2.8933,-2.8957,0,0,0,-2.8175,-2.8191,-2.8216,-2.8239,-2.8314,-2.8445,-2.847,-2.8541,-2.8566,-2.8653,-2.8662,-2.8896,-2.8898,-2.893,-2.8952,-2.9015,0,0,0,-2.8144,-2.8247,-2.8216,-2.8338,-2.8312,-2.8467,-2.8469,-2.8585,-2.8665,-2.8658,-2.8897,-2.8899,-2.8929,-2.8948,-2.9011,-2.9064,-2.9085,0,0,-2.8264,-2.8261,-2.8334,-2.8311,-2.8466,-2.8441,-2.8602,-2.8692,-2.8716,-2.8837,-2.8843,-2.8934,-2.8951,-2.9014,-2.921,-2.9226,0,0,0,-2.8366,-2.8418,-2.8463,-2.8538,-2.8608,-2.867,-2.8736,-2.8769,-2.8873,-2.8775,-2.8975,-2.8986,-2.9024,-2.905,-2.9064,-2.9096,-2.8911,-2.8911,-2.891,-2.8512,-2.8537,-2.8659,-2.8704,-2.8776,-2.8843,-2.8903,-2.8959,-2.8964,-2.901,-2.9046,-2.9162,-2.9192,-2.9202,-2.9236,-2.9077,-2.9078,-2.9078,-2.9078,-2.869,-2.8767,-2.877,-2.8888,-2.8914,-2.9014,-2.9081,-2.9081,-2.9177,-2.9137,-2.9172,-2.9125,-2.9219,-2.925,-2.9081,-2.908,-2.908,-2.908,-2.9079,-2.8787,-2.8828,-2.8866,-2.8976,-2.9057,-2.9099,-2.9191,-2.9211,-2.9231,-2.9265,-2.9304,-2.9303,-2.9304,-2.9282,-2.9283,-2.9283,-2.9283,-2.9284,-2.9284,-2.8873,-2.8914,-2.8989,-2.9072,-2.9121,-2.9189,-2.9256,-2.9305,-2.9365,-2.9372,-2.9373,-2.9371,-2.9225,-2.9186,-2.929,-2.9289,-2.9288,-2.9288,-2.9287,-2.9042,-2.9007,-2.9122,-2.9172,-2.9269,-2.9347,-2.9372,-2.947,-2.9513,-2.9557,-2.9549,-2.9438,-2.9436,-2.9425,-2.9393,-2.9544,-2.9544,-2.9544,-2.9544,-2.9123,-2.9124,-2.9245,-2.9323,-2.9401,-2.9435,-2.9562,-2.9615,-2.9664,-2.9692,-2.9673,-2.9634,-2.9622,-2.9627,-2.9611,-2.9582,-2.9778,-2.9778,-2.9778,-2.9228,-2.9237,-2.9342,-2.9389,-2.9466,-2.9532,-2.9652,-2.974,-2.9788,-2.9788,-2.9714,-2.9704,-2.964,-2.9619,-2.9616,-2.9591,-2.9538,0,0]},{"header":{"parameterUnit":"m.s-1","parameterCategory":1,"la1":30.2992,"la2":30.254,"lo1":-89.0895,"lo2":-89.0443,"dy":0.0025,"dx":0.0025,"nx":19,"ny":19,"refTime":"2026-03-16T21:00:00:Z","depth":0,"parameterNumber":3,"parameterNumberName":"V-component_of_WINDS"},"data":[0,0,0,-1.5596,-1.5597,-1.5632,-1.5632,-1.5679,-1.5679,0,0,0,0,0,0,0,0,0,0,0,-1.5587,-1.5587,-1.5596,-1.5597,-1.5632,-1.5632,-1.5679,-1.5679,0,0,0,0,0,0,0,0,0,0,0,-1.5587,-1.5587,-1.5588,-1.5597,-1.5632,-1.5632,-1.5678,-1.5651,0,0,0,0,0,0,0,0,0,0,-1.5617,-1.561,-1.5587,-1.5588,-1.5597,-1.5632,-1.5632,-1.565,-1.5653,-1.5664,0,-1.5673,0,-1.5677,-1.5682,-1.5683,0,0,0,-1.5596,-1.5608,-1.5616,-1.5588,-1.5597,-1.5632,-1.5616,-1.5652,-1.5655,-1.5668,-1.5674,-1.5676,-1.5678,-1.5683,-1.5683,-1.5746,-1.5746,0,0,-1.5594,-1.5594,-1.5613,-1.5618,-1.5613,-1.5615,-1.5617,-1.5654,-1.5661,-1.5674,-1.5677,-1.5679,-1.5683,-1.5683,-1.5745,-1.5746,0,0,0,-1.5589,-1.5593,-1.56,-1.5616,-1.5622,-1.5616,-1.5618,-1.5659,-1.5662,-1.5677,-1.5679,-1.5683,-1.5684,-1.5745,-1.5745,-1.5761,0,0,0,-1.5588,-1.559,-1.5599,-1.56,-1.5622,-1.5641,-1.5623,-1.5659,-1.5663,-1.5679,-1.5683,-1.5684,-1.5745,-1.5745,-1.576,-1.5768,0,0,0,-1.5584,-1.5589,-1.5595,-1.5599,-1.5615,-1.5641,-1.5645,-1.566,-1.5664,-1.5683,-1.5684,-1.5744,-1.5745,-1.5759,-1.5766,-1.5783,0,0,0,-1.558,-1.5609,-1.5595,-1.5628,-1.5614,-1.565,-1.5645,-1.5672,-1.5689,-1.5684,-1.5745,-1.5745,-1.5758,-1.5765,-1.5782,-1.5797,-1.5804,0,0,-1.5617,-1.5614,-1.5633,-1.5621,-1.566,-1.5645,-1.5685,-1.5702,-1.5704,-1.5732,-1.5733,-1.576,-1.5766,-1.5783,-1.5841,-1.5847,0,0,0,-1.5645,-1.5658,-1.5669,-1.5685,-1.5698,-1.5709,-1.5719,-1.5725,-1.5748,-1.5718,-1.5772,-1.5775,-1.5785,-1.5792,-1.5796,-1.5804,-1.5749,-1.5749,-1.5749,-1.5697,-1.5697,-1.5728,-1.5732,-1.5748,-1.5757,-1.577,-1.5779,-1.5776,-1.5788,-1.5796,-1.5831,-1.584,-1.5843,-1.5851,-1.5805,-1.5805,-1.5805,-1.5805,-1.5749,-1.5768,-1.5761,-1.5789,-1.5789,-1.5812,-1.5822,-1.5818,-1.584,-1.5826,-1.5835,-1.5819,-1.5848,-1.5855,-1.5806,-1.5806,-1.5806,-1.5806,-1.5806,-1.5782,-1.5791,-1.5797,-1.5819,-1.5836,-1.584,-1.586,-1.5859,-1.5859,-1.5868,-1.5875,-1.5875,-1.5874,-1.5872,-1.5872,-1.5872,-1.5872,-1.5872,-1.5872,-1.5814,-1.582,-1.5837,-1.5851,-1.5861,-1.5873,-1.5882,-1.5891,-1.5901,-1.5899,-1.5899,-1.5894,-1.5852,-1.584,-1.5874,-1.5874,-1.5873,-1.5873,-1.5873,-1.5865,-1.5853,-1.5879,-1.5888,-1.5904,-1.592,-1.5919,-1.5938,-1.5946,-1.5955,-1.5948,-1.5917,-1.5914,-1.5911,-1.5901,-1.5948,-1.5948,-1.5948,-1.5948,-1.5892,-1.589,-1.5915,-1.593,-1.5944,-1.5945,-1.5974,-1.598,-1.5986,-1.599,-1.5983,-1.5971,-1.5968,-1.5967,-1.5962,-1.5953,-1.6012,-1.6013,-1.6013,-1.5922,-1.5922,-1.5946,-1.595,-1.5962,-1.5973,-1.5999,-1.6016,-1.6019,-1.6015,-1.5993,-1.599,-1.5971,-1.5965,-1.5959,-1.5952,-1.5936,0,0]}]]